Location: Pedholt
(56.0260°N, 10.2097°E)
Time: 02:11:37
(UTC+00:00)

Transit 2A Rocket - Pass Details

Date: 01 August 2021
Orbit: 586 x 917 km, 66.7° (Epoch: 27 September)

Event Time Altitude Azimuth Distance (km) Brightness Sun altitude
Rises 19:01:41 0° 307° (NW) 3,103 10.9 2.1°
Reaches altitude 10° 19:04:10 10° 317° (NW) 2,237 9.1 1.8°
Maximum altitude 19:08:47 32° 21° (NNE) 1,312 6.4 1.3°
Drops below altitude 10° 19:13:47 10° 84° (E) 2,433 7.1 0.7°
Sets 19:16:36 0° 94° (E) 3,417 7.8 0.3°
